User: anonymous   Login
Location: El Centro
(32.7920°N, 115.5620°W)
Time: 19:01:07
(UTC-07:00)
Language:

Hamsat - Orbit

View from above orbital plane
View from above orbital plane
View from above satellite
View from above satellite

Ground track
Ground track

The orbit data is extracted from the following two-line orbital elements,

1 28650U 05017B   16147.95390780 +.00000534 +00000-0 +63313-4 0  9996
2 28650 097.6065 130.6396 0022997 333.3868 026.6167 14.88273751598643
Epoch (UTC): 26 May 2016 22:53:37
Eccentricity: 0.0022997
inclination: 97.6065°
perigee height: 587 km
apogee height: 619 km
right ascension of ascending node: 130.6396°
argument of perigee: 333.3868°
revolutions per day: 14.88273751
mean anomaly at epoch: 26.6167°
orbit number at epoch: 59864

The dashed part of the orbit path shows where the satellite is in the earth's shadow,  

DLR